PDT,Max TemperatureF,Mean TemperatureF,Min TemperatureF,Max Dew PointF,MeanDew PointF,Min DewpointF,Max Humidity, Mean Humidity, Min Humidity, Max Sea Level PressureIn, Mean Sea Level PressureIn, Min Sea Level PressureIn, Max VisibilityMiles, Mean VisibilityMiles, Min VisibilityMiles, Max Wind SpeedMPH, Mean Wind SpeedMPH, Max Gust SpeedMPH,PrecipitationIn, CloudCover, Events, WindDirDegrees
2013-5-1,56,46,36,43,35,27,82,62,41,30.61,30.57,30.45,20,20,19,9,5,,0.00,4,,54
2013-5-2,59,51,43,45,42,39,87,69,40,30.58,30.52,30.43,20,20,19,12,4,,0.00,6,Rain,324
2013-5-3,68,56,45,48,45,40,87,65,35,30.47,30.40,30.30,20,20,19,14,7,17,0.00,1,,324
2013-5-4,74,60,46,48,45,39,82,60,21,30.32,30.23,30.07,20,20,19,12,8,,0.00,2,,337
2013-5-5,79,64,50,55,46,41,68,51,25,30.07,29.94,29.81,20,20,19,12,6,,0.00,0,,337
2013-5-6,81,66,52,48,46,41,77,50,20,29.88,29.84,29.77,20,20,19,12,5,,0.00,0,,330
2013-5-7,70,60,50,55,49,44,82,63,41,29.94,29.90,29.82,20,20,19,12,7,,0.00,0,,25
2013-5-8,65,57,49,55,53,48,94,81,62,30.12,30.08,29.96,20,20,15,13,4,,0.00,1,,140
2013-5-9,68,58,48,55,52,48,100,79,64,30.23,30.17,30.11,20,18,15,8,3,,0.00,1,Fog,60
2013-5-10,66,58,51,57,53,48,94,78,64,30.22,30.17,30.12,20,20,15,7,5,,0.00,4,,33
2013-5-11,60,58,55,55,54,52,100,87,77,30.14,30.08,29.98,20,16,12,14,4,,0.20,8,Rain,163
2013-5-12,63,58,54,55,53,48,100,81,62,29.99,29.96,29.93,20,18,12,20,14,25,0.04,7,Rain,150
2013-5-13,57,52,46,52,47,41,97,79,52,30.08,29.95,29.85,20,18,3,22,7,29,0.24,6,Rain,189
2013-5-14,59,52,44,48,44,41,93,74,53,30.17,30.14,30.10,20,19,15,20,6,20,0.00,6,Rain,146
2013-5-15,57,53,49,50,47,43,94,84,71,30.12,30.08,30.02,20,18,15,14,7,,0.02,7,Rain,131
2013-5-16,61,54,48,52,49,46,100,82,58,30.03,29.98,29.91,20,19,15,9,3,,0.03,6,Rain,331
2013-5-17,59,54,49,55,51,48,100,89,73,29.98,29.94,29.92,20,17,10,20,5,25,0.31,6,Rain,150
2013-5-18,60,55,50,52,49,46,94,80,67,30.28,30.12,29.99,20,20,15,17,6,,0.02,7,Rain,155
2013-5-19,63,56,48,48,44,39,82,63,42,30.42,30.37,30.30,20,20,19,17,10,21,0.00,4,,339
2013-5-20,56,52,47,49,44,39,94,75,61,30.35,30.19,29.97,20,17,10,17,7,18,0.02,7,Rain,328
2013-5-21,54,48,43,48,44,41,95,84,66,29.95,29.83,29.78,20,18,10,13,8,,0.12,8,Rain,319
2013-5-22,58,53,48,50,47,43,100,78,50,29.89,29.87,29.82,20,20,19,9,4,,0.08,7,Rain,109
2013-5-23,60,54,48,50,46,43,100,77,54,30.00,29.96,29.86,20,18,10,25,9,31,0.31,7,Rain,132
2013-5-24,62,53,44,52,46,41,93,74,52,30.01,30.00,29.98,20,19,7,16,5,,0.00,3,,151
2013-5-25,61,54,47,52,48,45,88,78,60,30.02,30.01,29.99,20,20,19,14,6,,0.04,4,Rain,208
2013-5-26,63,54,46,52,49,44,88,79,63,30.00,29.97,29.93,20,20,19,17,7,20,0.00,4,Rain,163
2013-5-27,55,51,47,54,52,50,100,94,84,29.92,29.76,29.69,20,16,5,17,12,23,0.12,8,Rain,144
2013-5-28,57,54,51,52,51,48,94,91,78,29.81,29.76,29.71,20,16,10,24,14,31,0.04,7,Rain,145
2013-5-29,54,50,47,52,49,46,100,93,84,29.89,29.79,29.73,20,16,12,6,3,,0.12,7,Rain,206
2013-5-30,57,52,46,52,49,45,100,88,67,30.20,30.05,29.90,20,19,15,22,7,25,0.04,6,Rain,155
2013-5-31,61,54,47,50,48,46,100,79,51,30.35,30.30,30.22,20,20,19,14,4,,0.00,6,,158